Hlavní strana
METAR-TAF:

METAR-TAF

Letiště :

El Goléa, Alžírsko

zeměpisná šířka: 30-34N, zeměpisná délka: 002-52E, výška: 397 m

Aktuální stav počasí

Zpráva byla vytvořena před 1 hodinou a 10 minutami, v 18:00 UTC
Východní vítr 3 kt
Teplota 29°C
Vlhkost vzduchu 19%
Tlak 1018 hPa
Viditelnost 10 km a více
Žádná oblačnost pod 1500 m, nevyskytují se cumulonimby.

METAR: DAUE 131800Z 10003KT CAVOK 29/03 Q1018

Čas: 20:10 (19:10 UTC)


TAF: chybějící

Stav a předpovědi počasí z více než 4 000 letišť (zprávy METAR a TAF).

Červené a žluté tečky na mapě představují dostupné meteorologické stanice.

Když kurzor umístíte na tečku, zobrazí se název stanice.

Pak kliknutím zobrazíte stav a předpověď počasí.

Chcete-li změnit mapu, kliknutím na zelené tlačítko se znaménkem +mapu přiblížíte, kliknutím na zelené tlačítko se znaménkem – mapu oddálíte a kliknutím na zelené šipky přejdete na sousední mapy.


METAR-TAF: